Location: Stara Lesna
(49.1528°N, 20.2911°E)
Time: 03:42:21
(UTC+02:00)

Cosmos 405 Rocket - Pass Details

Date: 13 July 2020
Orbit: 489 x 555 km, 81.3° (Epoch: 11 August)

Event Time Altitude Azimuth Distance (km) Brightness Sun altitude
Exits shadow 03:05:28 17° 240° (WSW) 1,356 4.3 -12.5°
Maximum altitude 03:07:39 28° 290° (WNW) 976 3.9 -12.3°
Drops below altitude 10° 03:10:58 10° 351° (N) 1,725 6.1 -12.0°
Sets 03:13:17 0° 3° (N) 2,605 7.3 -11.7°
